[[{"header":{"parameterUnit":"m.s-1","parameterCategory":1,"la1":30.2991,"la2":30.254,"lo1":-89.0895,"lo2":-89.0444,"dy":0.0017,"dx":0.0017,"nx":28,"ny":28,"refTime":"2024-08-26T03:00:00:Z","depth":0,"parameterNumber":2,"parameterNumberName":"U-component_of_WINDS"},"data":[0,0,0,0,0,0,0,0,0,0,0,0,0,0,0,0,0,0,0,0,0,0,0,0,0,0,0,0,0,0,0,0,0,0,0,0,0,0,0,0,0,0,0,0,0,0,0,0,0,0,0,0,0,0,0,0,0,0,0.0384,0.0384,0,0.0372,0.0372,0.0372,0.04,0.0401,0.0402,0.0402,0.0387,0.0386,0.0384,0,0,0,0,0,0,0,0,0,0,0,0,0,0.0429,0.0428,0.0384,0.0384,0.0384,0.0372,0.0372,0.0372,0.04,0.0401,0.0402,0.0403,0.0387,0.0386,0.0384,0,0,0,0,0,0,0,0,0,0,0,0,0,0.0412,0.0427,0.0384,0.0396,0.0397,0.0372,0.0372,0.0372,0.0399,0.0401,0.0402,0.0403,0.0388,0.0386,0.0384,0.0345,0,0,0.0378,0.0378,0,0,0,0,0,0,0,0,0.0413,0.041,0.0395,0.0396,0.0397,0.0389,0.0382,0.0363,0.0399,0.0399,0.0403,0.0404,0.0386,0.0385,0.0379,0.0345,0.0344,0.0378,0.0377,0.0376,0.0376,0,0,0,0,0,0,0,0.0414,0.0411,0.0379,0.0394,0.0396,0.0402,0.0401,0.0378,0.0385,0.0399,0.0401,0.0399,0.0387,0.0381,0.0379,0.0344,0.0378,0.0377,0.0375,0.0375,0.0275,0.0274,0,0,0,0,0,0,0.0414,0.0412,0.038,0.0379,0.0408,0.04,0.0399,0.039,0.0385,0.0386,0.0398,0.04,0.0384,0.0381,0.0379,0.0332,0.0376,0.0374,0.0373,0.0277,0.0275,0.0274,0,0,0,0,0,0,0.0415,0.0411,0.038,0.0396,0.0392,0.0398,0.0387,0.0389,0.0383,0.0385,0.0386,0.0391,0.0385,0.0381,0.0353,0.0332,0.0374,0.0372,0.0279,0.0276,0.0274,0.0238,0,0,0,0,0,0,0.0416,0.0411,0.0397,0.0395,0.0392,0.0356,0.0386,0.0388,0.038,0.0383,0.0378,0.0379,0.0385,0.0356,0.0351,0.033,0.037,0.0281,0.0278,0.0275,0.0241,0.0235,0.023,0,0,0,0,0,0.0418,0.0387,0.0396,0.0392,0.0374,0.0354,0.0352,0.0361,0.0378,0.0363,0.0365,0.0379,0.0335,0.0353,0.0348,0.0325,0.0282,0.0279,0.0275,0.0244,0.0236,0.023,0,0,0,0,0,0,0.0384,0.0387,0.0397,0.0365,0.0359,0.0359,0.0341,0.0353,0.0342,0.0345,0.0356,0.0355,0.0324,0.0322,0.0342,0.0287,0.0311,0.0307,0.0289,0.0282,0.0276,0.0277,0.0369,0,0,0,0,0,0.0374,0.0359,0.0361,0.0332,0.0329,0.0336,0.0327,0.0335,0.0329,0.0327,0.0326,0.0319,0.0303,0.0293,0.0279,0.0242,0.024,0.0224,0.0218,0.0213,0.0209,0.0188,0.018,0.0262,0.0262,0.0263,0,0,0.0351,0.035,0.034,0.0326,0.0322,0.0305,0.0333,0.0314,0.0301,0.0323,0.0297,0.0296,0.0289,0.0256,0.0241,0.0253,0.0186,0.0209,0.0205,0.0203,0.0184,0.0176,0.0169,0.026,0.0261,0.0261,0,0,0.03,0.0299,0.0274,0.027,0.0265,0.027,0.0264,0.0262,0.0262,0.0236,0.0253,0.0237,0.0211,0.0205,0.0198,0.0146,0.0158,0.0141,0.0109,0.0089,0.0082,0.0077,0.0057,0.0049,0.0137,0.0136,0.0136,0,0.0271,0.0247,0.026,0.024,0.0232,0.0253,0.0228,0.0224,0.0214,0.0208,0.0222,0.0189,0.0186,0.0151,0.0138,0.0133,0.0126,0.014,0.0083,0.0077,0.0072,0.0053,0.0045,0.0134,0.0135,0.0135,0.0135,0,0.0212,0.0195,0.0176,0.0167,0.0158,0.0135,0.0143,0.0132,0.0141,0.0144,0.0116,0.0114,0.0099,0.0092,0.01,0.0058,0.0066,0.0081,0.0105,0.0062,0.0044,0.0037,0.0131,0.0132,0.0133,0.0133,0,0,0.0138,0.0137,0.013,0.0125,0.0122,0.0108,0.0086,0.0073,0.0063,0.0056,0.0036,0.0014,0.0028,0.0021,0.0029,0.0011,-0.0032,0.0029,0.0029,0.0016,-0.008,-0.0093,-0.0101,-0.0023,-0.0024,-0.0026,-0.008,0,0.0087,0.005,0.0061,0.0023,0.0007,0.0027,0.0007,0.0002,0.0004,-0.001,-0.0008,-0.0024,-0.0003,-0.0008,-0.0024,-0.0023,-0.0052,-0.0019,-0.0043,-0.0044,-0.0043,-0.0111,-0.0124,-0.0175,-0.0087,-0.0088,-0.0089,0,0.0021,0.0012,-0.0027,-0.0028,-0.0035,-0.0052,-0.0064,-0.0077,-0.0082,-0.008,-0.0088,-0.0076,-0.0099,-0.0073,-0.0105,-0.0083,-0.0092,-0.0093,-0.0095,-0.0098,-0.007,-0.0118,-0.0191,-0.02,-0.0099,-0.0098,-0.0098,0,-0.0031,-0.0052,-0.0079,-0.0083,-0.0085,-0.0098,-0.0099,-0.0103,-0.0112,-0.0122,-0.0128,-0.014,-0.0148,-0.0159,-0.0152,-0.0133,-0.0185,-0.0159,-0.0185,-0.0186,-0.0199,-0.0198,-0.0277,-0.0201,-0.0201,-0.0201,-0.0201,0,-0.009,-0.0116,-0.0102,-0.0119,-0.0147,-0.0134,-0.0162,-0.0161,-0.0165,-0.0182,-0.0165,-0.0181,-0.017,-0.0185,-0.018,-0.0208,-0.0211,-0.0211,-0.0209,-0.0213,-0.0214,-0.022,-0.0217,-0.0203,-0.0203,-0.0202,-0.0202,0,-0.0154,-0.0146,-0.0174,-0.0172,-0.0173,-0.0194,-0.0193,-0.0209,-0.0205,-0.0227,-0.0231,-0.0225,-0.0243,-0.0236,-0.0255,-0.0251,-0.0288,-0.0281,-0.0286,-0.0285,-0.0312,-0.031,-0.0399,-0.0411,-0.0326,-0.0327,-0.0328,0,-0.0194,-0.0213,-0.0213,-0.0223,-0.0225,-0.0241,-0.0249,-0.0237,-0.0247,-0.0255,-0.027,-0.0285,-0.0298,-0.0327,-0.0325,-0.034,-0.0334,-0.0364,-0.0336,-0.034,-0.0337,-0.0337,-0.0339,-0.0371,-0.0372,-0.0372,-0.0373,0,-0.0266,-0.026,-0.0273,-0.0284,-0.0294,-0.0303,-0.031,-0.0319,-0.0307,-0.0319,-0.0336,-0.0346,-0.0364,-0.0381,-0.0394,-0.0396,-0.0384,-0.0381,-0.0389,-0.0394,-0.0397,-0.0397,-0.0303,-0.038,-0.0379,-0.0379,-0.0378,-0.0378,-0.032,-0.0336,-0.0339,-0.0353,-0.0357,-0.0364,-0.0379,-0.0376,-0.039,-0.0404,-0.0396,-0.0416,-0.0422,-0.0437,-0.0442,-0.0458,-0.0447,-0.0457,-0.046,-0.0463,-0.0467,-0.0392,-0.046,-0.046,-0.046,-0.046,-0.046,0,-0.0392,-0.0393,-0.0406,-0.0416,-0.0428,-0.0413,-0.042,-0.0431,-0.0449,-0.0454,-0.0466,-0.0486,-0.0502,-0.0501,-0.0516,-0.0529,-0.0524,-0.0534,-0.0534,-0.0535,-0.0476,-0.0469,-0.0538,-0.0538,-0.0538,-0.0538,-0.0538,-0.0538,-0.0432,-0.0458,-0.0454,-0.0482,-0.0483,-0.0502,-0.0507,-0.0514,-0.0518,-0.0541,-0.0554,-0.0553,-0.0556,-0.0571,-0.0585,-0.0584,-0.0591,-0.0604,-0.0601,-0.0547,-0.0539,-0.0532,-0.0525,-0.0605,-0.0605,-0.0659,-0.066,-0.066]},{"header":{"parameterUnit":"m.s-1","parameterCategory":1,"la1":30.2991,"la2":30.254,"lo1":-89.0895,"lo2":-89.0444,"dy":0.0017,"dx":0.0017,"nx":28,"ny":28,"refTime":"2024-08-26T03:00:00:Z","depth":0,"parameterNumber":3,"parameterNumberName":"V-component_of_WINDS"},"data":[0,0,0,0,0,0,0,0,0,0,0,0,0,0,0,0,0,0,0,0,0,0,0,0,0,0,0,0,0,0,0,0,0,0,0,0,0,0,0,0,0,0,0,0,0,0,0,0,0,0,0,0,0,0,0,0,0,0,-1.9572,-1.9572,0,-1.9598,-1.9599,-1.9599,-1.9599,-1.9599,-1.9599,-1.9598,-1.9623,-1.9624,-1.9625,0,0,0,0,0,0,0,0,0,0,0,0,0,-1.9518,-1.9519,-1.9572,-1.9572,-1.9572,-1.9598,-1.9599,-1.9599,-1.9599,-1.9599,-1.9599,-1.9598,-1.9623,-1.9624,-1.9625,0,0,0,0,0,0,0,0,0,0,0,0,0,-1.9543,-1.9519,-1.9571,-1.9576,-1.9576,-1.9598,-1.9599,-1.9599,-1.9599,-1.9599,-1.9599,-1.9598,-1.9622,-1.9624,-1.9625,-1.9644,0,0,-1.963,-1.963,0,0,0,0,0,0,0,0,-1.9541,-1.9544,-1.9575,-1.9575,-1.9576,-1.9595,-1.9589,-1.9614,-1.96,-1.9591,-1.9598,-1.9598,-1.9614,-1.9616,-1.9622,-1.9645,-1.9646,-1.963,-1.9631,-1.9631,-1.9632,0,0,0,0,0,0,0,-1.9539,-1.9543,-1.9582,-1.9575,-1.9576,-1.9575,-1.9578,-1.9594,-1.9605,-1.9591,-1.9591,-1.9595,-1.9614,-1.9621,-1.9623,-1.9647,-1.963,-1.9631,-1.9632,-1.9632,-1.9685,-1.9685,0,0,0,0,0,0,-1.9537,-1.9542,-1.9581,-1.9583,-1.9557,-1.9577,-1.958,-1.9589,-1.9604,-1.9606,-1.9595,-1.9595,-1.9618,-1.9621,-1.9624,-1.9646,-1.9631,-1.9633,-1.9633,-1.9684,-1.9685,-1.9686,0,0,0,0,0,0,-1.9536,-1.9541,-1.958,-1.9562,-1.9567,-1.9578,-1.9589,-1.959,-1.9597,-1.9607,-1.9609,-1.96,-1.9618,-1.9622,-1.9639,-1.9646,-1.9633,-1.9635,-1.9684,-1.9685,-1.9685,-1.969,0,0,0,0,0,0,-1.9535,-1.954,-1.9548,-1.9563,-1.9568,-1.9596,-1.9589,-1.9591,-1.9599,-1.9599,-1.9612,-1.9614,-1.9618,-1.9637,-1.964,-1.9648,-1.9636,-1.9683,-1.9684,-1.9685,-1.9689,-1.9691,-1.9693,0,0,0,0,0,-1.9533,-1.9548,-1.9549,-1.9553,-1.9579,-1.9596,-1.9599,-1.9605,-1.96,-1.9608,-1.9614,-1.9613,-1.9645,-1.9638,-1.9642,-1.9651,-1.9683,-1.9684,-1.9685,-1.9689,-1.9691,-1.9693,0,0,0,0,0,0,-1.9534,-1.955,-1.9551,-1.9572,-1.9583,-1.9596,-1.9606,-1.9607,-1.9618,-1.9617,-1.9623,-1.9626,-1.9643,-1.9649,-1.9641,-1.9669,-1.9663,-1.9665,-1.9665,-1.9667,-1.9668,-1.9666,-1.9637,0,0,0,0,0,-1.9537,-1.955,-1.9564,-1.9581,-1.9586,-1.9595,-1.9603,-1.9606,-1.9617,-1.9622,-1.963,-1.964,-1.9652,-1.966,-1.9672,-1.9691,-1.9693,-1.9698,-1.97,-1.9701,-1.9703,-1.9712,-1.9714,-1.969,-1.969,-1.969,0,0,-1.9542,-1.9553,-1.9561,-1.9581,-1.959,-1.9603,-1.9599,-1.9613,-1.9623,-1.9624,-1.964,-1.9647,-1.9658,-1.9676,-1.9684,-1.9682,-1.971,-1.9703,-1.9704,-1.9704,-1.9713,-1.9716,-1.9718,-1.969,-1.969,-1.969,0,0,-1.9559,-1.9569,-1.9584,-1.9593,-1.9607,-1.9612,-1.9616,-1.963,-1.9634,-1.9651,-1.9652,-1.9663,-1.9684,-1.9692,-1.9698,-1.9718,-1.9717,-1.9722,-1.9729,-1.9738,-1.974,-1.9742,-1.9748,-1.975,-1.9723,-1.9723,-1.9723,0,-1.9564,-1.9585,-1.9591,-1.9606,-1.9614,-1.9616,-1.963,-1.9639,-1.9655,-1.966,-1.9657,-1.9683,-1.9691,-1.9711,-1.9715,-1.9721,-1.9724,-1.972,-1.974,-1.9742,-1.9743,-1.9749,-1.9751,-1.9724,-1.9723,-1.9723,-1.9723,0,-1.959,-1.9604,-1.9614,-1.9631,-1.964,-1.9655,-1.9662,-1.9671,-1.9673,-1.9679,-1.9696,-1.9705,-1.9719,-1.9724,-1.9726,-1.9743,-1.9741,-1.9739,-1.9733,-1.9746,-1.9751,-1.9754,-1.9724,-1.9724,-1.9724,-1.9724,0,0,-1.9607,-1.9627,-1.9631,-1.9638,-1.9653,-1.9664,-1.9678,-1.9692,-1.9699,-1.971,-1.9721,-1.9739,-1.9737,-1.9744,-1.9747,-1.9756,-1.9769,-1.9752,-1.9753,-1.9754,-1.9788,-1.9788,-1.9791,-1.9769,-1.977,-1.977,-1.9786,0,-1.9625,-1.9651,-1.9657,-1.9678,-1.9691,-1.9693,-1.9705,-1.9715,-1.9721,-1.9732,-1.9738,-1.975,-1.9747,-1.9751,-1.976,-1.9766,-1.9776,-1.9765,-1.9778,-1.9779,-1.9774,-1.9794,-1.9795,-1.981,-1.9788,-1.9789,-1.9789,0,-1.9649,-1.9661,-1.9684,-1.9697,-1.9703,-1.9714,-1.9727,-1.9737,-1.9748,-1.9752,-1.976,-1.9762,-1.9776,-1.977,-1.9788,-1.978,-1.9786,-1.979,-1.9791,-1.9791,-1.9784,-1.9794,-1.9815,-1.9817,-1.9793,-1.9792,-1.9792,0,-1.9658,-1.9681,-1.9697,-1.9704,-1.9719,-1.9727,-1.9733,-1.9744,-1.9752,-1.9763,-1.9768,-1.978,-1.9786,-1.9795,-1.98,-1.9795,-1.9817,-1.9812,-1.982,-1.9819,-1.9823,-1.9823,-1.9844,-1.9829,-1.9829,-1.9829,-1.9829,0,-1.9677,-1.9691,-1.9702,-1.9712,-1.9727,-1.9733,-1.9748,-1.9754,-1.9764,-1.9774,-1.9777,-1.9786,-1.9793,-1.9803,-1.9807,-1.9821,-1.9824,-1.9826,-1.9827,-1.9825,-1.9825,-1.9829,-1.9827,-1.9829,-1.9829,-1.9829,-1.9829,0,-1.969,-1.9698,-1.9716,-1.9729,-1.9733,-1.9743,-1.9755,-1.9764,-1.977,-1.9783,-1.9786,-1.9795,-1.9807,-1.9814,-1.9828,-1.9831,-1.9846,-1.9847,-1.9843,-1.9843,-1.985,-1.9849,-1.9874,-1.9877,-1.986,-1.986,-1.986,0,-1.97,-1.9711,-1.9726,-1.9734,-1.9741,-1.9753,-1.9761,-1.9768,-1.9776,-1.9789,-1.9796,-1.9809,-1.9819,-1.9838,-1.9845,-1.9857,-1.9857,-1.9865,-1.9858,-1.9857,-1.9856,-1.9855,-1.9855,-1.9866,-1.9866,-1.9866,-1.9866,0,-1.9719,-1.9722,-1.9734,-1.9747,-1.9757,-1.9768,-1.9778,-1.9784,-1.9792,-1.9801,-1.9814,-1.9822,-1.9837,-1.9849,-1.9861,-1.9867,-1.9867,-1.9868,-1.987,-1.9869,-1.9866,-1.9866,-1.9845,-1.9867,-1.9867,-1.9867,-1.9867,-1.9867,-1.973,-1.9739,-1.9751,-1.9764,-1.9773,-1.9783,-1.9792,-1.9799,-1.981,-1.9824,-1.9827,-1.984,-1.985,-1.9866,-1.9872,-1.9882,-1.988,-1.9884,-1.9884,-1.9885,-1.9885,-1.9865,-1.9884,-1.9884,-1.9884,-1.9884,-1.9884,0,-1.9747,-1.9755,-1.9767,-1.9782,-1.9792,-1.9793,-1.9804,-1.9812,-1.9824,-1.9834,-1.9844,-1.9858,-1.987,-1.9878,-1.989,-1.9896,-1.9896,-1.9899,-1.9898,-1.9899,-1.9886,-1.9883,-1.9898,-1.9898,-1.9898,-1.9898,-1.9898,-1.9898,-1.9757,-1.9773,-1.9778,-1.9797,-1.9805,-1.9819,-1.9825,-1.9833,-1.9841,-1.9857,-1.9867,-1.9873,-1.9882,-1.9894,-1.9904,-1.9906,-1.991,-1.9912,-1.9913,-1.9901,-1.99,-1.9898,-1.9895,-1.9913,-1.9913,-1.9925,-1.9925,-1.9925]}]]